Location: Unspecified
(0.0000°N, 0.0000°E)
Time: 05:45:23
(UTC+00:00)

ISS - Pass Details

Date: 09 August 2022
Orbit: 412 x 420 km, 51.6° (Epoch: 13 August)

Event Time Altitude Azimuth Distance (km) Brightness Sun altitude
Rises 18:56:49 0° 340° (NNW) 2,329 0.6 -12.3°
Reaches altitude 10° 18:59:04 10° 352° (N) 1,472 -0.7 -12.9°
Maximum altitude 19:02:00 29° 55° (NE) 777 -2.7 -13.6°
Enters shadow 19:02:57 25° 87° (E) 879 -2.7 -13.8°
